Location: Unspecified
(0.0000°N, 0.0000°E)
Time: 13:55:00
(UTC+02:00)

BREEZE-M DEB (TANK) - Visible Passes

Search period start: 25 October 2014 00:00
Search period end: 03 November 2014 23:00
Orbit: 322 x 16424 km, 49.4° (Epoch: 24 October)

Date Brightness Start Highest point End Pass type
(mag) Time Alt. Az. Time Alt. Az. Time Alt. Az.
25 Oct 8.0 00:41:20 10° NNW 01:02:34 19° N 01:02:34 19° N visible
25 Oct 8.6 16:59:07 10° SW 17:49:40 55° WNW 20:32:38 10° NNE visible
26 Oct 8.1 01:39:52 10° NNW 01:48:18 16° NNW 01:48:18 16° NNW visible
26 Oct 8.3 16:51:36 10° WSW 17:49:22 40° WNW 20:27:15 10° NNE visible
27 Oct 8.1 17:49:29 10° W 18:53:45 26° WNW 21:22:23 10° NNE visible
28 Oct 8.0 19:06:21 10° WNW 21:54:28 19° N 22:08:25 17° NNE visible
29 Oct 7.9 22:03:03 10° NNW 22:54:12 21° N 22:54:12 21° N visible
30 Oct 7.9 23:16:29 10° NNW 23:39:59 21° N 23:39:59 21° N visible
31 Oct 8.5 15:36:56 10° WSW 16:26:30 51° WNW 19:10:41 10° NNE visible
01 Nov 8.1 00:15:15 10° NNW 00:25:46 18° NNW 00:25:46 18° NNW visible
01 Nov 8.2 16:30:03 10° WSW 17:27:31 36° WNW 20:06:19 10° NNE visible
02 Nov 8.2 01:10:33 10° NW 01:11:34 11° NNW 01:11:34 11° NNW visible
02 Nov 8.0 17:29:45 10° W 18:35:52 24° NW 21:00:11 12° NNE visible
03 Nov 7.9 18:57:03 10° WNW 21:36:34 20° N 21:45:59 19° NNE visible
